Regional Weather Roundup
Issued by NWS

Home | Current Version | Previous Version | Text Only | Print | Product List | Glossary Off
Versions: 1 2 3 4 5 6 7 8 9 10 11 12 13 14 15 16 17 18 19 20 21 22 23 24 25 26 27 28 29 30 31 32 33 34 35 36 37 38 39 40 41 42 43 44 45 46 47 48 49 50

000
ASUS45 KABQ 180601
RWRNM
NEW MEXICO REGIONAL WEATHER ROUNDUP
NATIONAL WEATHER SERVICE ALBUQUERQUE NM
1200 AM MDT WED OCT 18 2017

NOTE: "FAIR" MEANS FEW OR NO CLOUDS BELOW 12,000 FEET AGL WITH NO
       SIGNIFICANT WEATHER OR OBSTRUCTIONS TO VISION.

      THIS PRODUCT IS RELEASED AS TWO VERSIONS.  ONE VERSION NEAR
      THE TOP OF THE HOUR CONTAINING PRELIMINARY DATA FROM ALBUQUERQUE
      AND OTHER STATIONS.  A FINAL VERSION WITH ADDITIONAL DATA IS
      ISSUED ABOUT 10 MINUTES AFTER THE HOUR.

NMZ501-503-504-510>518-180700-
NORTHWEST PLATEAU/NORTHCENTRAL MOUNTAINS

CITY           SKY/WX    TMP DP  RH WIND       PRES   REMARKS
FARMINGTON     FAIR      44  12  27 E10       30.23S
6HR MIN TEMP:  38; 6HR MAX TEMP:  69;

LOS ALAMOS     FAIR      58  11  15 W3        30.31F
SANTA FE       FAIR      47  25  42 N7        30.25F
6HR MIN TEMP:  41; 6HR MAX TEMP:  68;

TAOS           FAIR      41  17  38 NE3       30.33F

$$
NMZ402-403-502-505>509-180700-
WESTCENTRAL MOUNTAINS/SOUTHWEST MOUNTAINS

CITY           SKY/WX    TMP DP  RH WIND       PRES   REMARKS
GALLUP         FAIR      42  16  34 NE3       30.29F
6HR MIN TEMP:  38; 6HR MAX TEMP:  73;

GRANTS         FAIR      41  14  32 NW7       30.32F
SILVER CITY    CLOUDY    53  40  62 NW7       30.24S

$$
NMZ407-409-411-412-180700-
SOUTHERN DESERTS

CITY           SKY/WX    TMP DP  RH WIND       PRES   REMARKS
DEMING         FAIR      62  43  49 NW5       30.17S
6HR MIN TEMP:  61; 6HR MAX TEMP:  80;

LAS CRUCES     FAIR      60  41  51 W3        30.17F
HOLLOMAN AFB   FAIR      58  35  41 E7          N/A
ALAMOGORDO     FAIR      59  36  41 E6        30.16F
T OR C         FAIR      62  37  39 W9        30.18S
6HR MIN TEMP:  62; 6HR MAX TEMP:  78;


$$
NMZ519>523-180700-
CENTRAL VALLEYS/CENTRAL HIGHLANDS

CITY           SKY/WX    TMP DP  RH WIND       PRES   REMARKS
ALBUQUERQUE    FAIR      58  30  34 NW3       30.22F
6HR MIN TEMP:  57; 6HR MAX TEMP:  74;

MORIARTY ARPT  FAIR      40  28  61 NW6       30.26F
6HR MIN TEMP:  39; 6HR MAX TEMP:  71;

CLINES CORNERS FAIR      47  20  34 W13       30.28F
6HR MIN TEMP:  43; 6HR MAX TEMP:  65;

BELEN          FAIR      50  33  51 NW6       30.21F
6HR MIN TEMP:  50; 6HR MAX TEMP:  73;

SOCORRO        FAIR      55  35  46 S5        30.18F
6HR MIN TEMP:  54; 6HR MAX TEMP:  76;


$$
NMZ524>526-539-540-180700-
SOUTHCENTRAL MOUNTAINS

CITY           SKY/WX    TMP DP  RH WIND       PRES   REMARKS
RUIDOSO        FAIR      57  32  38 SW13      30.32S

$$
NMZ527>531-180700-
NORTHEAST HIGHLANDS/NORTHEAST PLAINS

CITY           SKY/WX    TMP DP  RH WIND       PRES   REMARKS
LAS VEGAS      FAIR      46  32  58 N12       30.24F
6HR MIN TEMP:  45; 6HR MAX TEMP:  64;

RATON          FAIR      39  27  62 NE5       30.19F
6HR MIN TEMP:  39; 6HR MAX TEMP:  68;

CLAYTON        FAIR      54  30  40 W8        30.10F HAZE
6HR MIN TEMP:  54; 6HR MAX TEMP:  69;


$$
NMZ532>537-180700-
EASTCENTRAL PLAINS

CITY           SKY/WX    TMP DP  RH WIND       PRES   REMARKS
SANTA ROSA     FAIR      49  31  49 SW7       30.13F
TUCUMCARI      FAIR      58  39  49 SW12      30.05F
6HR MIN TEMP:  57; 6HR MAX TEMP:  74;

CANNON AFB     FAIR      54  43  66 SW9       30.14F
6HR MIN TEMP:  53; 6HR MAX TEMP:  73;

CLOVIS AIRPORT FAIR      49  40  71 SW9       30.13F

$$
NMZ028-029-538-180700-
SOUTHEAST PLAINS

CITY           SKY/WX    TMP DP  RH WIND       PRES   REMARKS
ROSWELL        FAIR      56  47  71 CALM      30.12F
6HR MIN TEMP:  55; 6HR MAX TEMP:  76;

ARTESIA        FAIR      57  45  62 S9        30.12F
CARLSBAD       FAIR      59  50  72 SE7       30.10F
6HR MIN TEMP:  57; 6HR MAX TEMP:  77;

HOBBS          FAIR      54  41  62 SW8       30.14F


$$




USA.gov is the U.S. government's official web portal to all federal, state and local government web resources and services.